Location: D�derode
(51.8092°N, 10.1065°E)
Time: 06:52:26
(UTC+00:00)

Cosmos 1869 Rocket - Pass Details

Date: 01 December 2020
Orbit: 604 x 634 km, 82.5° (Epoch: 24 January)

Event Time Altitude Azimuth Distance (km) Brightness Sun altitude
Rises 18:09:55 0° 346° (NNW) 2,947 7.2 -26.4°
Reaches altitude 10° 18:12:11 10° 342° (NNW) 2,033 6.4 -26.8°
Maximum altitude 18:16:36 56° 265° (W) 757 4.2 -27.4°
Enters shadow 18:18:00 38° 209° (SSW) 963 4.7 -27.7°
Exits shadow 18:22:42 - 184° (S) 2,704 6.9 -28.4°
Sets 18:23:12 0° 183° (S) 2,906 7.1 -28.5°
